Current weather by "City, St" or "zip code"  
 

Current Conditions: Dublin / New River Valley, VA

Partly Cloudy


73.0 F

Last Updated on Oct 29 2020, 4:55 pm EDT
Humidity: 70%
Wind Speed: W 18.4 G 31.1 mph
Barometer 29.58 in
Dewpoint: 63.0 F
Visibility: 10.00 mi
Precip: --
Heat Index: NA
Wind Chill: NA
Current conditions at:

Dublin / New River Valley, VA (KPSK)

Lat: 37.13333 Lon: 80.68333

Local Radar Image active severe weather and emergency alerts image image weather storm and storm spotter reports image weather observation monitoring service image
Local
Radar
Active
Alerts
Storm Reports Obs
Monitoring

Sign-up For Email & Text Message Weather Alert Notification Services



Advertise Here

Observation History for Dublin / New River Valley, VA


Time Wind
(mph)
Vis
(mi)
Weather Precip (in) Temperature (F) Relative
Humidity
Wind
Chill
(F)
Heat
Index
(F)
Pressure
Air Dwpt altimeter
(in)
sea level
(mb)
Rmks
4:55 pm EDT W 18.4 G 31.1 10.00 Partly Cloudy -- 73.0 63.0 70% NA NA 29.58 M
3:55 pm EDT SW 20.7 G 29.9 10.00 Overcast and Breezy -- 71.0 65.8 84% NA NA 29.57 M
3:15 pm EDT SW 21.9 G 28.8 10.00 Overcast and Breezy -- 72.0 65.8 82% NA NA 29.57 M
1:55 pm EDT SW 9.2 10.00 Overcast -- 70.0 66.0 86% NA NA 29.57 M
12:35 pm EDT NW 10.4 G 16.1 4.00 Fog/Mist -- 67.0 64.9 94% NA NA 29.56 M
11:55 am EDT NW 8.1 2.50 Rain -- 65.0 64.8 100% NA NA 29.50 M
10:55 am EDT E 12.7 4.00 Rain -- 64.0 64.4 100% NA NA 29.46 M
9:55 am EDT NE 15.0 2.00 Rain -- 64.0 64.4 100% NA NA 29.52 M
8:55 am EDT E 6.9 1.75 Heavy Rain -- 64.0 63.9 100% NA NA 29.65 M
7:55 am EDT NE 4.6 2.00 Rain -- 63.0 63.1 100% 64 NA 29.71 M
6:55 am EDT N 0.0 7.00 Rain -- 65.0 64.0 97% NA NA 29.76 M
5:55 am EDT N 0.0 4.00 Heavy Rain -- 65.0 63.9 98% NA NA 29.78 M
4:55 am EDT S 6.9 7.00 Rain -- 64.0 64.0 100% NA NA 29.82 M
3:55 am EDT SE 3.5 4.00 Light Rain -- 62.0 62.2 100% NA NA 29.86 M
2:15 am EDT N 0.0 4.00 Rain -- 62.0 62.1 100% NA NA 29.93 M
1:55 am EDT N 0.0 2.50 Heavy Rain -- 63.0 62.6 100% NA NA 29.93 M
12:55 am EDT N 0.0 4.00 Rain -- 62.0 62.2 100% NA NA 29.96 M
11:55 pm EDT N 0.0 7.00 Light Rain -- 63.0 62.2 98% NA NA 30.00 M
10:55 pm EDT N 0.0 5.00 Fog/Mist -- 62.0 61.3 99% NA NA 30.00 M
9:55 pm EDT N 0.0 10.00 Overcast -- 63.0 62.4 99% NA NA 30.01 M
8:55 pm EDT W 4.6 10.00 Overcast -- 63.0 62.6 99% 64 NA 30.06 M
6:35 pm EDT N 0.0 7.00 Light Drizzle -- 63.0 62.2 99% NA NA 30.05 M
5:55 pm EDT N 0.0 10.00 Overcast -- 64.0 62.8 98% NA NA 30.06 M

Regional Weather Observation


Virginia Tech Airport, VA (KBCB)

Partly Cloudy
74.0 F

Bluefield, Mercer County Airport, WV (KBLF)

Overcast and Breezy
67.0 F

Beckley, Raleigh County Memorial Airport, WV (KBKW)

Rain Fog/Mist
66.0 F

Lewisburg / Greenbrier, WV (KLWB)

Light Rain
68.0 F

Pineville, Kee Field Airport, WV (KI16)

Overcast
71.0 F

Tazewell County Airport, VA (KJFZ)

Mostly Cloudy
67.0 F